Temp_Advection
nan nan nan nan nan nan nan nan nan nan nan nan nan nan nan nan nan nan nan nan nan nan nan nan nan nan nan nan nan nan nan nan nan nan nan nan nan nan nan nan nan nan nan
nan 1 1 0 0 0 0 0 0 0 0 0 0 -0 0 0 0 0 -0 0 0 0 0 0 0 0 -0 -0 -0 -0 -0 -0 -0 -0 -0 -0 -0 -0 -0 -0 -0 -0 nan
nan 0 1 0 0 0 0 0 0 -0 -0 0 -0 0 0 0 0 -0 -0 -0 -0 0 0 0 0 0 0 -0 -0 0 0 -0 -0 -0 -0 -0 -0 -0 -0 -0 -0 -0 nan
nan 1 0 0 1 0 0 0 -0 0 0 0 0 0 0 0 0 -0 -0 0 0 0 0 0 0 0 0 0 -0 -0 -0 0 0 -0 -0 -0 -0 -0 -0 -0 -0 0 nan
nan 1 -1 0 1 1 1 0 0 0 0 0 -0 0 0 0 -0 -0 -0 0 0 0 0 0 0 -0 -0 0 0 -0 -0 -0 0 0 -0 -0 -0 -0 -0 -0 -0 0 nan
nan 0 0 0 0 1 -0 1 0 0 0 0 0 0 0 -0 -0 -0 0 0 0 0 0 0 -0 0 0 -0 -0 0 0 0 -0 0 -0 -0 -0 -0 -0 -0 -0 -0 nan
nan 0 1 1 0 -0 1 1 -0 0 1 0 0 0 -0 -0 -0 -0 -0 -0 0 0 0 0 0 0 0 0 0 -0 -0 -0 -0 -0 -0 -0 -0 -0 -0 -0 -0 -0 nan
nan 1 1 0 1 0 -0 -0 -0 1 0 -0 0 -0 -0 -0 -0 -0 0 0 0 0 0 0 0 0 0 0 -0 -0 -0 0 0 -0 -0 -0 -0 -0 -0 -0 -0 -0 nan
nan 1 1 1 0 -0 -0 -0 -0 -0 -0 -1 -1 -1 -0 0 0 1 1 0 1 1 1 0 0 0 0 -0 -0 -0 -0 -0 0 0 0 0 -0 -0 -0 -0 -0 -0 nan
nan 0 0 -0 -0 -0 -0 -0 -0 -0 -1 -1 -0 -0 0 0 0 0 1 1 1 1 1 0 0 0 0 0 -0 -0 0 0 0 -0 0 0 -0 0 -0 -0 -0 -0 nan
nan 0 -0 0 -0 -1 -1 0 -0 -0 -0 -0 -0 0 0 0 0 0 0 0 0 0 0 0 0 0 0 0 0 0 -0 -0 0 0 0 0 0 0 0 -0 -0 -0 nan
nan 0 -0 -0 -0 -0 0 -0 -0 0 0 -0 -0 0 0 0 0 0 0 0 0 0 0 -0 0 0 0 0 -0 -0 -0 0 0 0 -0 0 0 -0 0 0 -0 -1 nan
nan -0 -0 0 -0 0 0 -0 0 0 -0 -0 -0 0 0 0 0 0 0 0 0 0 -0 -0 0 0 0 0 -0 -0 -0 0 0 0 0 -0 -0 -0 -0 -0 -0 -1 nan
nan -0 0 0 0 0 0 0 0 0 -0 -0 0 0 0 0 0 0 0 0 0 0 0 0 0 0 0 0 -0 -0 0 0 -0 0 -0 -0 -0 -0 -0 -0 -0 -0 nan
nan 0 0 -0 0 -0 0 -0 0 0 0 0 0 0 0 0 0 0 0 0 0 0 1 1 0 0 0 -0 -0 -0 -0 -0 -0 -0 -0 -0 -0 -0 -0 -0 -0 -0 nan
nan 0 -0 -0 -0 -0 -0 0 0 0 0 0 0 0 0 0 0 0 0 0 0 0 0 0 0 0 -0 -0 -0 -0 -1 -1 -0 -0 -0 -0 -0 -0 -0 -0 -0 -0 nan
nan -0 -0 -0 -0 -0 -0 -0 -0 -0 -0 -0 0 0 0 0 -0 0 0 0 0 0 -0 -0 -0 0 -0 -0 -0 -1 -1 -1 -0 -0 -1 -1 -0 -1 -1 -0 -0 -0 nan
nan -0 -0 -0 -0 -0 -0 -0 -0 -0 -0 -0 -0 -0 0 0 0 -0 -0 0 0 0 -0 -1 -1 -0 -0 -0 -1 -1 -0 -0 -1 -0 -0 -1 -1 -1 -1 -1 -0 -0 nan
nan -0 -0 -0 -0 -0 -0 -0 -0 -0 -0 -0 -0 -0 -0 -0 -0 -0 -0 0 0 0 -0 -1 -1 -1 -1 -1 -1 -1 -1 -1 -0 -1 -0 -0 -1 -0 -0 -0 -0 -0 nan
nan -0 0 0 -0 -0 -0 -0 -0 -0 -0 -0 -0 -0 -0 -0 -0 0 0 -0 -0 0 -0 -1 -1 -1 -1 -1 -1 -2 -1 -1 -1 -0 -1 -1 -0 -0 0 -0 -1 -0 nan
nan -0 -0 0 0 0 0 -0 -0 -0 -0 -0 -0 -0 -0 -0 -0 -0 0 0 0 -0 -0 -1 -1 -1 -1 -1 -0 -1 -3 -3 -2 -1 -1 -0 0 -0 -1 -0 -0 -0 nan
nan -0 -0 0 0 0 0 -0 0 0 -0 -0 -0 -0 -0 0 -0 -0 -0 0 0 -0 -0 -0 -1 -2 -1 -1 -1 -1 -2 -3 -4 -2 -3 -2 -1 -1 -1 -0 -0 -0 nan
nan -0 -0 -0 0 0 0 0 -0 -0 -0 -0 -0 -0 -0 -0 -0 0 0 0 0 0 0 -0 -1 -1 -2 -1 -1 -1 -1 -1 -2 -3 -4 -5 -2 -1 -1 -0 -0 -1 nan
nan -0 -0 0 -0 0 0 0 0 -0 -0 0 0 -0 -0 -0 -0 0 0 -0 -0 0 0 0 -0 -0 -0 -0 -0 -1 -2 -1 -1 -1 -1 -5 -4 -3 -2 -1 -1 -0 nan
nan -0 -0 -0 -0 0 1 0 0 -0 -0 0 0 -0 -0 -0 0 0 0 -0 -0 0 1 0 0 0 0 -0 -1 -1 -1 -1 -2 -2 -1 -1 -2 -5 -5 -2 -1 -1 nan
nan nan nan nan nan nan nan nan nan nan nan nan nan nan nan nan nan nan nan nan nan nan nan nan nan nan nan nan nan nan nan nan nan nan nan nan nan nan nan nan nan nan nan
Wind_Speed
22 19 20 17 17 15 16 17 17 15 15 14 14 12 10 8 6 5 3 3 3 4 5 5 5 4 5 5 7 9 11 12 12 9 7 7 6 8 9 10 10 10 10
23 23 23 21 19 18 17 17 17 16 16 15 17 15 13 11 10 9 6 4 4 3 4 3 3 3 3 2 3 4 7 9 11 10 8 6 5 5 6 7 8 8 8
18 18 23 24 22 21 21 20 19 18 18 18 18 17 16 15 15 14 12 9 7 5 4 5 4 3 1 1 2 2 4 6 8 10 9 7 5 4 4 4 6 6 6
18 18 17 23 23 23 23 23 22 21 21 22 23 22 20 18 18 15 15 14 13 11 9 6 6 7 6 4 2 1 3 3 5 7 9 8 5 4 3 3 3 4 5
21 20 18 18 21 23 22 26 25 23 22 22 22 23 24 23 20 18 17 16 15 15 14 9 7 8 9 8 7 5 3 2 3 5 6 7 6 4 3 3 2 2 2
19 20 17 20 17 19 20 20 25 22 21 23 23 23 22 22 22 20 20 20 19 18 17 15 11 10 10 10 10 9 7 6 4 5 6 5 5 4 4 4 3 4 4
16 19 16 19 13 17 17 13 15 19 16 19 19 19 19 20 23 23 21 21 20 20 19 18 13 11 11 12 11 10 10 10 10 9 8 8 6 5 4 5 5 5 5
15 17 12 15 15 8 11 6 12 12 14 13 13 14 9 15 18 20 21 21 21 21 20 19 17 12 10 12 12 12 12 11 10 12 12 12 10 10 9 8 8 7 7
14 14 12 12 9 13 8 9 10 9 15 15 14 14 7 6 12 14 14 16 18 19 18 19 18 19 17 12 12 14 14 14 15 14 14 14 13 12 11 11 12 11 11
9 12 8 11 11 8 8 9 11 15 16 16 17 18 15 7 7 7 12 12 12 14 16 17 17 18 18 18 17 15 17 16 17 19 17 18 21 17 17 16 12 12 13
7 5 7 12 12 9 13 11 12 16 14 15 17 16 17 15 10 6 9 14 14 14 14 16 16 16 17 18 18 20 19 20 21 22 23 22 21 20 22 21 21 22 17
7 8 9 9 10 12 13 13 13 15 14 14 14 14 15 15 16 14 8 13 15 14 13 14 15 17 19 19 21 20 22 23 24 25 25 27 26 30 30 28 28 28 28
6 7 8 10 10 10 10 11 14 17 14 13 12 12 12 13 13 13 13 12 13 15 14 13 15 16 17 18 19 20 23 24 25 27 29 31 34 31 28 29 30 31 32
5 6 7 8 9 10 10 9 11 12 12 12 12 12 13 13 12 13 13 13 13 15 16 16 16 16 17 17 18 20 21 22 22 23 25 26 28 28 27 28 29 30 31
4 5 6 7 7 7 7 9 9 10 11 11 12 12 12 12 13 13 13 13 13 12 14 17 17 18 19 18 19 19 21 22 22 23 23 23 23 24 24 25 26 28 30
4 5 5 5 5 6 6 7 8 8 9 10 10 10 11 11 12 12 12 13 14 16 13 12 16 19 18 19 21 22 23 24 24 26 27 27 28 28 28 28 29 30 30
4 4 5 5 5 5 6 6 7 7 8 9 9 9 10 10 11 12 12 12 14 17 19 20 19 19 20 22 24 26 27 27 28 29 29 30 31 32 32 31 32 33 33
5 5 5 5 5 5 6 6 7 7 7 8 9 9 10 11 11 11 12 13 14 16 19 21 21 21 23 24 26 27 27 27 28 28 28 29 31 32 33 34 34 35 35
6 7 7 7 6 6 6 7 7 8 7 8 9 9 11 10 12 12 12 14 15 16 18 21 24 23 23 23 25 25 26 27 27 26 27 29 29 30 31 31 32 34 35
7 8 9 8 8 8 8 7 8 8 8 8 9 9 10 11 11 12 12 13 14 16 18 20 22 24 25 24 26 27 27 26 28 25 26 29 28 28 26 27 29 32 33
11 11 11 11 11 11 10 10 9 9 9 10 10 10 11 11 12 13 14 14 15 16 18 19 21 23 24 25 26 28 30 32 31 28 27 24 25 27 27 28 29 30 31
15 15 15 15 16 15 14 14 13 12 11 11 11 11 12 13 14 15 15 15 16 16 17 20 21 23 24 25 27 29 31 32 33 27 29 33 31 30 28 28 27 26 27
20 19 18 18 19 19 18 17 16 15 13 13 13 13 13 13 15 14 15 16 17 17 18 21 24 23 26 25 27 28 27 28 31 33 33 40 32 32 31 29 26 28 29
21 21 21 19 20 20 20 20 19 19 17 15 15 15 14 14 14 15 16 17 17 18 19 20 22 23 23 22 23 25 29 31 33 32 26 38 35 35 32 32 32 29 25
20 21 22 22 22 20 21 22 22 22 21 18 17 16 16 16 16 17 18 19 20 19 20 20 21 23 21 20 22 25 26 28 31 30 25 29 31 40 38 33 25 23 16
21 21 22 22 23 22 22 23 24 25 24 21 19 17 17 17 17 18 19 20 22 21 21 22 21 20 19 20 21 23 24 24 25 27 18 28 35 33 33 29 11 16 33
Wind_Direction
186 187 193 200 204 215 215 210 203 191 192 201 198 200 196 189 191 186 189 154 137 127 106 84 76 76 74 59 50 44 42 38 42 47 57 66 69 67 63 66 66 64 64
193 187 192 195 202 209 215 218 215 201 200 205 205 202 211 216 214 215 220 230 203 177 168 152 123 107 88 60 23 21 24 27 31 38 42 46 59 70 64 59 65 67 67
246 204 193 196 201 207 213 217 214 214 212 211 218 217 216 221 227 229 231 240 248 243 214 211 213 206 205 45 18 340 332 360 14 25 29 35 37 45 54 46 46 57 59
264 256 221 200 204 205 211 213 216 219 219 218 219 223 229 227 231 236 237 237 244 248 252 225 223 234 239 245 265 13 2 328 342 1 14 20 22 27 37 47 38 28 34
268 250 244 222 215 208 206 210 214 218 223 226 226 228 232 240 235 237 240 240 239 240 245 247 233 237 239 241 251 255 274 313 329 321 343 2 11 2 360 8 1 326 356
248 260 257 242 226 228 213 208 209 213 220 231 230 233 233 237 240 237 239 246 244 241 238 241 241 242 246 244 244 251 253 267 281 296 298 315 340 355 347 337 327 310 302
237 243 248 255 243 237 230 241 220 219 222 229 237 238 238 238 243 243 240 238 239 241 241 236 232 235 240 248 250 257 264 270 276 279 286 279 285 297 302 306 321 325 306
234 249 255 268 249 247 257 245 242 229 245 240 244 238 234 233 232 235 240 237 237 240 242 239 227 233 235 244 247 248 249 250 267 271 271 272 274 272 278 284 289 288 293
248 231 238 244 248 250 276 263 287 292 253 245 238 231 210 214 217 225 227 230 231 234 236 238 234 231 238 233 240 243 244 244 245 252 262 264 257 260 264 265 270 278 283
245 254 255 260 267 255 276 292 274 255 251 240 233 223 225 217 193 199 212 209 212 223 229 231 236 237 237 234 230 229 238 244 254 249 254 267 267 268 264 263 262 264 268
209 223 260 256 245 247 242 246 260 255 250 242 232 229 227 226 218 204 202 200 205 211 219 227 230 235 235 234 237 235 241 241 249 253 258 259 262 267 271 269 269 260 255
215 209 208 227 231 227 237 235 242 254 247 241 237 236 233 228 229 228 217 205 206 217 222 227 232 239 241 242 245 247 252 249 251 252 255 259 264 264 261 266 268 267 258
229 225 217 223 228 227 231 224 222 236 239 243 243 241 240 238 233 235 233 220 213 221 226 232 231 234 239 242 246 250 255 256 256 257 257 261 265 268 266 265 266 266 269
226 234 237 233 227 230 230 231 231 240 247 246 241 238 237 238 239 237 237 235 231 229 232 234 233 236 241 245 250 251 256 259 260 262 263 264 265 268 268 269 268 269 269
233 230 232 239 242 240 231 241 238 237 242 245 246 246 245 241 241 240 236 239 242 242 232 235 237 242 246 252 258 261 263 266 268 269 270 272 274 275 275 274 273 273 272
247 261 259 256 257 258 254 246 245 241 246 247 244 246 249 251 249 251 246 241 246 250 247 238 240 246 254 259 265 268 270 271 273 276 278 279 279 277 275 276 276 275 275
245 259 274 282 280 276 271 264 260 253 252 255 258 256 255 256 256 253 253 252 250 254 259 253 253 258 262 267 271 275 279 280 280 280 281 283 282 282 281 280 280 279 278
264 270 274 279 283 285 284 280 278 276 271 267 265 263 264 259 259 260 259 259 258 261 267 273 270 266 268 273 277 278 278 280 280 280 281 280 280 281 281 280 280 281 280
268 267 268 270 274 278 283 287 290 289 286 282 277 273 268 269 268 267 265 264 264 266 271 275 281 284 283 283 280 281 283 282 283 283 283 281 280 279 280 281 280 279 278
278 274 264 263 262 264 269 274 278 280 282 283 284 284 285 283 281 279 277 275 273 274 275 278 282 288 291 293 296 298 291 291 288 288 285 285 285 284 284 283 282 281 281
280 277 272 267 265 264 264 264 267 270 274 277 282 283 283 286 285 284 281 278 279 282 284 285 286 290 294 299 303 304 302 300 298 299 292 287 285 287 289 286 284 283 282
270 270 271 268 265 264 262 263 261 262 267 270 274 278 281 283 281 283 287 285 282 281 287 291 293 293 297 301 302 303 304 307 309 300 299 294 298 299 297 290 289 287 280
266 267 265 263 261 258 255 255 257 261 261 266 271 275 278 279 282 282 281 280 280 281 281 283 287 294 297 300 298 299 300 299 298 302 308 301 307 303 300 301 300 293 290
266 262 260 261 260 257 253 250 250 255 258 261 266 272 277 279 281 282 281 281 282 285 285 282 285 291 291 294 295 292 295 298 299 303 312 304 309 303 302 303 302 298 295
268 267 262 257 257 255 252 249 248 250 255 258 264 270 276 280 284 285 285 285 287 288 287 288 286 285 286 284 284 291 294 297 301 302 312 301 306 306 308 308 302 300 298
271 268 265 263 257 255 251 247 245 248 252 256 261 267 273 279 282 285 285 288 290 294 291 287 287 287 285 287 289 287 290 292 297 307 313 306 306 316 317 312 311 285 299
Height
1524 1528 1531 1535 1537 1540 1542 1544 1545 1547 1550 1551 1552 1553 1554 1555 1555 1556 1556 1556 1557 1557 1557 1558 1557 1558 1557 1557 1557 1557 1556 1555 1553 1552 1551 1551 1551 1550 1551 1551 1550 1550 1550
1520 1524 1527 1530 1534 1537 1539 1543 1544 1546 1547 1549 1550 1552 1553 1554 1555 1555 1555 1556 1556 1557 1557 1557 1557 1557 1558 1558 1558 1558 1558 1557 1555 1554 1553 1553 1553 1552 1551 1553 1552 1552 1551
1520 1520 1523 1525 1529 1533 1536 1539 1541 1543 1546 1547 1549 1550 1551 1552 1554 1554 1555 1555 1556 1556 1556 1557 1558 1558 1558 1558 1558 1558 1558 1559 1558 1556 1555 1554 1555 1554 1553 1553 1554 1554 1553
1519 1518 1518 1520 1524 1528 1531 1535 1537 1539 1541 1544 1546 1547 1549 1549 1550 1552 1553 1552 1554 1555 1555 1555 1556 1558 1557 1557 1558 1558 1558 1559 1559 1558 1557 1556 1555 1555 1554 1554 1554 1555 1555
1517 1519 1518 1516 1520 1523 1526 1529 1532 1534 1537 1540 1541 1543 1545 1547 1547 1549 1551 1551 1551 1553 1554 1554 1554 1556 1557 1556 1557 1558 1558 1558 1558 1559 1558 1557 1557 1556 1556 1555 1555 1555 1555
1515 1515 1515 1518 1517 1520 1519 1522 1525 1528 1533 1536 1537 1539 1540 1542 1544 1546 1547 1548 1548 1549 1550 1552 1553 1554 1555 1555 1555 1557 1558 1558 1557 1558 1559 1557 1557 1556 1557 1556 1555 1555 1555
1510 1512 1513 1518 1516 1518 1515 1519 1519 1523 1526 1531 1533 1535 1536 1537 1539 1542 1543 1544 1545 1546 1547 1549 1550 1550 1551 1553 1554 1555 1557 1557 1558 1558 1558 1558 1556 1556 1556 1557 1556 1555 1555
1506 1510 1512 1516 1516 1516 1520 1513 1520 1518 1526 1525 1532 1534 1533 1534 1534 1537 1539 1539 1540 1542 1543 1546 1548 1548 1549 1549 1551 1552 1554 1556 1557 1556 1557 1557 1557 1555 1555 1555 1555 1555 1555
1506 1508 1512 1517 1517 1514 1514 1516 1516 1518 1526 1529 1527 1534 1528 1529 1530 1533 1534 1536 1536 1537 1540 1543 1544 1545 1547 1546 1548 1550 1551 1552 1552 1554 1552 1555 1554 1554 1554 1553 1553 1553 1553
1507 1509 1513 1514 1512 1514 1514 1514 1519 1526 1529 1526 1528 1525 1525 1526 1528 1531 1533 1534 1533 1534 1536 1539 1541 1542 1543 1543 1544 1546 1547 1548 1549 1549 1549 1550 1552 1552 1551 1551 1551 1551 1550
1506 1507 1511 1516 1513 1512 1515 1518 1521 1526 1526 1525 1526 1525 1525 1525 1527 1528 1529 1530 1532 1533 1534 1536 1537 1540 1540 1540 1540 1541 1543 1544 1546 1545 1546 1546 1547 1549 1548 1547 1546 1547 1547
1506 1506 1508 1514 1514 1513 1516 1514 1516 1524 1526 1526 1523 1522 1522 1524 1524 1525 1527 1528 1530 1531 1532 1534 1532 1536 1537 1537 1537 1536 1539 1539 1541 1540 1541 1540 1541 1542 1544 1542 1541 1540 1542
1508 1508 1508 1511 1511 1511 1515 1513 1516 1522 1522 1521 1519 1519 1520 1521 1522 1523 1524 1525 1527 1529 1530 1530 1530 1530 1533 1533 1533 1532 1533 1533 1534 1535 1537 1535 1534 1535 1536 1536 1536 1535 1536
1507 1507 1509 1512 1512 1514 1512 1512 1514 1515 1517 1518 1518 1518 1518 1518 1519 1519 1521 1524 1524 1525 1526 1528 1528 1527 1528 1528 1529 1527 1528 1529 1528 1529 1530 1528 1528 1529 1528 1529 1529 1530 1529
1509 1510 1510 1511 1512 1511 1508 1512 1511 1511 1515 1516 1516 1516 1515 1515 1517 1517 1517 1520 1522 1524 1523 1524 1525 1524 1525 1524 1525 1524 1523 1524 1523 1523 1524 1523 1523 1524 1521 1522 1521 1522 1521
1508 1510 1510 1510 1509 1510 1509 1509 1511 1511 1512 1515 1514 1512 1513 1514 1513 1515 1514 1515 1518 1522 1522 1520 1520 1521 1520 1520 1520 1520 1520 1519 1518 1518 1517 1516 1517 1517 1516 1516 1515 1515 1515
1508 1509 1509 1508 1509 1508 1508 1509 1510 1510 1510 1510 1509 1509 1510 1511 1510 1512 1512 1512 1515 1518 1517 1516 1517 1517 1517 1516 1517 1516 1515 1514 1513 1513 1511 1509 1509 1509 1508 1508 1507 1508 1508
1506 1506 1507 1507 1507 1507 1508 1509 1508 1507 1507 1508 1508 1507 1508 1509 1510 1509 1509 1510 1512 1512 1513 1512 1512 1512 1512 1513 1511 1511 1509 1508 1507 1507 1506 1503 1502 1502 1500 1500 1499 1499 1498
1505 1505 1505 1506 1505 1506 1507 1507 1506 1507 1505 1507 1507 1505 1509 1506 1508 1507 1507 1508 1508 1509 1508 1508 1508 1507 1506 1507 1505 1504 1503 1501 1503 1501 1498 1497 1495 1495 1494 1493 1492 1490 1489
1502 1503 1504 1504 1504 1505 1505 1505 1506 1505 1505 1505 1506 1504 1506 1505 1505 1504 1504 1507 1505 1505 1506 1505 1504 1504 1500 1501 1498 1496 1495 1496 1495 1494 1491 1490 1489 1489 1488 1486 1485 1483 1480
1499 1500 1500 1501 1501 1502 1503 1503 1503 1503 1503 1504 1503 1503 1504 1503 1503 1503 1504 1503 1503 1501 1503 1502 1501 1498 1497 1494 1494 1492 1489 1487 1487 1486 1483 1484 1482 1483 1481 1480 1478 1476 1474
1495 1496 1496 1497 1497 1498 1499 1499 1499 1500 1500 1501 1502 1501 1501 1501 1501 1500 1498 1500 1500 1500 1498 1499 1496 1494 1494 1491 1491 1487 1486 1482 1481 1478 1476 1475 1473 1473 1473 1471 1469 1466 1464
1491 1492 1492 1493 1494 1494 1495 1496 1496 1497 1498 1497 1498 1498 1497 1498 1498 1496 1496 1497 1497 1496 1495 1495 1492 1491 1489 1489 1487 1485 1483 1478 1477 1475 1472 1462 1465 1463 1462 1462 1460 1457 1454
1486 1486 1487 1488 1488 1490 1490 1491 1492 1492 1493 1494 1494 1494 1494 1494 1494 1493 1492 1493 1492 1490 1491 1490 1489 1487 1486 1484 1484 1481 1478 1472 1472 1471 1470 1457 1457 1454 1454 1453 1451 1448 1446
1480 1480 1481 1482 1482 1483 1484 1485 1486 1487 1487 1488 1489 1489 1489 1489 1489 1489 1487 1486 1486 1486 1486 1486 1484 1483 1481 1480 1479 1475 1474 1471 1466 1465 1466 1457 1451 1445 1445 1444 1441 1440 1439
1475 1474 1475 1476 1476 1477 1478 1479 1480 1481 1482 1483 1484 1485 1485 1485 1484 1484 1482 1482 1481 1481 1481 1480 1478 1476 1476 1475 1473 1471 1469 1466 1465 1461 1461 1456 1449 1445 1436 1433 1435 1438 1439